Change the Weather History Date:

Wednesday, May 22, 2013

  Actual Average Record
Temperature  
Mean Temperature 54 °F -  
Max Temperature 57 °F 69 °F 82 °F (1992)
Min Temperature 51 °F 39 °F 28 °F (1993)
Degree Days  
Heating Degree Days 11    
Growing Degree Days 4 (Base 50)    
Moisture  
Dew Point 54 °F    
Average Humidity 95    
Maximum Humidity 100    
Minimum Humidity 82    
Precipitation  
Precipitation 0.39 in - - ()
Sea Level Pressure  
Sea Level Pressure 29.74 in    
Wind  
Wind Speed 8 mph (NE)    
Max Wind Speed 16 mph    
Max Gust Speed 21 mph    
Visibility 7 miles    
Events      
Averages and records for this station are not official NWS values.
T = Trace of Precipitation, MM = Missing Value Source: NWS Daily Summary

Daily Weather History Graph

Daily Weather History Graph

Search for Another Location

Airport or City:

Trip Planner

Search our weather history database for the weather conditions in past years. The results will help you decide how hot, cold, wet, or windy it might be!

Date:

Astronomy

May. 22, 2013 Rise Set
Actual Time 5:57 AM EDT 9:12 PM EDT
Civil Twilight 5:20 AM EDT 9:49 PM EDT
Nautical Twilight 4:33 AM EDT 10:36 PM EDT
Astronomical Twilight 3:34 AM EDT 11:36 PM EDT
Moon 6:26 PM EDT (5/22) 4:10 AM EDT (5/22)
Length of Visible Light 16h 28m
Length of Day
15h 15m
Waxing Gibbous, 91% of the Moon is Illuminated
May 22
Waxing Gibbous
May 25
Full
May 31
Last Quarter
Jun 8
New
Jun 16
First Quarter

Hourly Weather History & Observations

Time (EDT) Temp. Dew Point Humidity Pressure Visibility Wind Dir Wind Speed Gust Speed Precip Events Conditions
12:15 AM 55.4 °F 55.4 °F 100% 29.73 in 9.0 mi East 9.2 mph - 0.05 in   Overcast
12:35 AM 55.4 °F 55.4 °F 100% 29.73 in 10.0 mi East 8.1 mph - 0.06 in   Overcast
12:55 AM 55.4 °F 55.4 °F 100% 29.73 in 10.0 mi East 9.2 mph - 0.06 in   Overcast
1:15 AM 55.4 °F 55.4 °F 100% 29.72 in 10.0 mi East 9.2 mph - N/A   Overcast
1:35 AM 55.4 °F 55.4 °F 100% 29.73 in 10.0 mi East 8.1 mph - N/A   Overcast
1:55 AM 55.4 °F 55.4 °F 100% 29.72 in 10.0 mi East 6.9 mph - N/A   Overcast
2:15 AM 55.4 °F 55.4 °F 100% 29.72 in 10.0 mi East 6.9 mph - N/A   Overcast
2:35 AM 55.4 °F 53.6 °F 94% 29.72 in 10.0 mi East 8.1 mph - N/A   Overcast
2:55 AM 55.4 °F 55.4 °F 100% 29.71 in 10.0 mi East 10.4 mph - N/A   Overcast
3:15 AM 55.4 °F 55.4 °F 100% 29.71 in 10.0 mi East 6.9 mph - N/A   Overcast
3:35 AM 55.4 °F 55.4 °F 100% 29.71 in 10.0 mi East 6.9 mph - N/A   Overcast
3:55 AM 55.4 °F 55.4 °F 100% 29.72 in 10.0 mi SE 4.6 mph - N/A   Overcast
4:15 AM 55.4 °F 55.4 °F 100% 29.72 in 10.0 mi ESE 3.5 mph - N/A   Overcast
4:35 AM 55.4 °F 55.4 °F 100% 29.72 in 10.0 mi ESE 3.5 mph - N/A   Overcast
4:55 AM 55.4 °F 55.4 °F 100% 29.72 in 7.0 mi ESE 4.6 mph - N/A   Overcast
5:15 AM 55.4 °F 55.4 °F 100% 29.73 in 2.5 mi SE 3.5 mph - N/A   Overcast
5:35 AM 55.4 °F 55.4 °F 100% 29.73 in 1.0 mi East 3.5 mph - N/A   Overcast
5:55 AM 55.4 °F 55.4 °F 100% 29.73 in 0.5 mi NE 3.5 mph - N/A   Overcast
6:15 AM 55.4 °F 55.4 °F 100% 29.72 in 0.5 mi NE 5.8 mph - N/A   Overcast
6:35 AM 55.4 °F 55.4 °F 100% 29.72 in 0.8 mi NE 4.6 mph - N/A   Overcast
6:55 AM 55.4 °F 55.4 °F 100% 29.72 in 0.5 mi ENE 6.9 mph - N/A   Overcast
7:15 AM 55.4 °F 55.4 °F 100% 29.72 in 0.8 mi NE 5.8 mph - N/A   Overcast
7:35 AM 55.4 °F 55.4 °F 100% 29.72 in 0.5 mi NE 6.9 mph - N/A   Overcast
7:55 AM 55.4 °F 55.4 °F 100% 29.72 in 0.5 mi NE 6.9 mph - N/A   Overcast
8:15 AM 55.4 °F 55.4 °F 100% 29.73 in 0.5 mi NE 6.9 mph - N/A   Overcast
8:35 AM 55.4 °F 53.6 °F 94% 29.73 in 0.5 mi ENE 8.1 mph - N/A   Overcast
8:55 AM 55.4 °F 53.6 °F 94% 29.74 in 0.5 mi ENE 5.8 mph - N/A   Overcast
9:15 AM 55.4 °F 53.6 °F 94% 29.74 in 0.8 mi ENE 5.8 mph - N/A   Overcast
9:35 AM 55.4 °F 55.4 °F 100% 29.75 in 0.8 mi ENE 6.9 mph - N/A   Overcast
9:55 AM 55.4 °F 55.4 °F 100% 29.74 in 1.0 mi ENE 6.9 mph - N/A   Overcast
10:15 AM 55.4 °F 55.4 °F 100% 29.73 in 0.8 mi ENE 9.2 mph - N/A   Overcast
10:35 AM 55.4 °F 55.4 °F 100% 29.73 in 1.0 mi NE 8.1 mph - N/A   Overcast
10:55 AM 55.4 °F 53.6 °F 94% 29.74 in 1.8 mi NNE 8.1 mph - N/A   Overcast
11:15 AM 55.4 °F 53.6 °F 94% 29.74 in 1.8 mi NE 6.9 mph - N/A   Overcast
11:35 AM 55.4 °F 53.6 °F 94% 29.74 in 1.8 mi NNE 9.2 mph - N/A   Overcast
11:55 AM 55.4 °F 55.4 °F 100% 29.74 in 1.0 mi NNE 10.4 mph - N/A   Overcast
12:15 PM 55.4 °F 55.4 °F 100% 29.74 in 1.5 mi NE 9.2 mph - N/A   Overcast
12:35 PM 55.4 °F 55.4 °F 100% 29.73 in 5.0 mi NE 11.5 mph - N/A   Overcast
12:55 PM 55.4 °F 55.4 °F 100% 29.74 in 10.0 mi NE 10.4 mph - N/A   Overcast
1:15 PM 55.4 °F 53.6 °F 94% 29.74 in 10.0 mi NE 11.5 mph - N/A   Overcast
1:35 PM 55.4 °F 53.6 °F 94% 29.73 in 10.0 mi NE 9.2 mph - N/A   Overcast
1:55 PM 55.4 °F 53.6 °F 94% 29.73 in 10.0 mi NNE 10.4 mph - N/A   Overcast
2:15 PM 57.2 °F 53.6 °F 88% 29.73 in 10.0 mi NE 9.2 mph - N/A   Overcast
2:35 PM 57.2 °F 53.6 °F 88% 29.73 in 10.0 mi NE 10.4 mph - N/A   Overcast
2:55 PM 57.2 °F 53.6 °F 88% 29.73 in 10.0 mi NE 10.4 mph - N/A   Overcast
3:15 PM 57.2 °F 53.6 °F 88% 29.73 in 10.0 mi NE 11.5 mph - N/A   Overcast
3:35 PM 57.2 °F 53.6 °F 88% 29.72 in 10.0 mi NE 11.5 mph - N/A   Overcast
3:55 PM 57.2 °F 53.6 °F 88% 29.72 in 10.0 mi NE 11.5 mph 17.3 mph N/A   Overcast
4:15 PM 57.2 °F 51.8 °F 82% 29.72 in 10.0 mi NE 13.8 mph - N/A   Overcast
4:35 PM 55.4 °F 51.8 °F 88% 29.73 in 10.0 mi NE 9.2 mph - N/A   Overcast
4:55 PM 55.4 °F 51.8 °F 88% 29.73 in 10.0 mi NNE 10.4 mph - N/A   Overcast
5:15 PM 55.4 °F 51.8 °F 88% 29.72 in 10.0 mi NNE 10.4 mph - N/A   Overcast
5:35 PM 55.4 °F 51.8 °F 88% 29.72 in 10.0 mi NE 13.8 mph - N/A   Overcast
5:55 PM 55.4 °F 51.8 °F 88% 29.72 in 10.0 mi NE 16.1 mph 20.7 mph N/A   Overcast
6:15 PM 55.4 °F 51.8 °F 88% 29.72 in 10.0 mi NE 13.8 mph 20.7 mph N/A   Overcast
6:35 PM 55.4 °F 51.8 °F 88% 29.73 in 10.0 mi NE 12.7 mph 17.3 mph N/A   Overcast
6:55 PM 55.4 °F 51.8 °F 88% 29.73 in 10.0 mi NE 11.5 mph 18.4 mph N/A   Overcast
7:15 PM 55.4 °F 51.8 °F 88% 29.72 in 10.0 mi NE 10.4 mph - N/A   Overcast
7:35 PM 55.4 °F 51.8 °F 88% 29.73 in 10.0 mi NE 10.4 mph - N/A   Overcast
7:55 PM 55.4 °F 51.8 °F 88% 29.74 in 10.0 mi NE 10.4 mph - N/A   Overcast
8:15 PM 55.4 °F 51.8 °F 88% 29.75 in 10.0 mi NNE 8.1 mph - N/A   Overcast
8:35 PM 55.4 °F 51.8 °F 88% 29.75 in 8.0 mi North 6.9 mph - N/A   Overcast
8:55 PM 55.4 °F 51.8 °F 88% 29.76 in 4.0 mi NNE 11.5 mph - 0.03 in   Overcast
9:15 PM 53.6 °F 51.8 °F 94% 29.76 in 10.0 mi NNE 12.7 mph 17.3 mph 0.09 in   Overcast
9:35 PM 53.6 °F 51.8 °F 94% 29.77 in 10.0 mi North 10.4 mph - 0.19 in   Overcast
9:55 PM 53.6 °F 51.8 °F 94% 29.78 in 10.0 mi North 8.1 mph - 0.23 in   Overcast
10:15 PM 53.6 °F 51.8 °F 94% 29.78 in 10.0 mi North 9.2 mph - 0.01 in   Overcast
10:35 PM 51.8 °F 51.8 °F 100% 29.79 in 10.0 mi North 8.1 mph - 0.03 in   Overcast
10:55 PM 51.8 °F 51.8 °F 100% 29.79 in 10.0 mi North 9.2 mph - 0.03 in   Overcast
11:15 PM 51.8 °F 51.8 °F 100% 29.79 in 10.0 mi NNW 8.1 mph - 0.01 in   Overcast
11:35 PM 51.8 °F 51.8 °F 100% 29.79 in 10.0 mi NNW 8.1 mph - 0.02 in   Overcast
11:55 PM 51.8 °F 51.8 °F 100% 29.79 in 10.0 mi NNW 9.2 mph - 0.04 in   Overcast